Location: Hauppauge
(40.8260°N, 73.2030°W)
Time: 19:48:25
(UTC-05:00)

Daily predictions for brighter satellites

Satellite Brightness Start Highest point End
(mag) Time Altitude Azimuth Time Altitude Azimuth Time Altitude Azimuth
Cosmos 1048 Rocket 4.4 16:48:08 10° NNW 16:53:26 73° WSW 16:58:46 10° S
Okean 1 Rocket 4.0 16:50:45 10° NNW 16:55:00 53° W 16:59:12 10° S
Cosmos 1633 3.8 16:54:22 10° NNW 16:57:50 46° W 17:01:15 10° SSW
Cosmos 1544 Rocket 4.0 16:55:26 10° N 16:59:41 41° ENE 17:03:55 10° SSE
COSMO-SKYMED 1 4.1 16:58:31 10° NE 17:01:29 18° E 17:04:25 10° SE
Cosmos 1975 Rocket 3.1 16:58:48 10° S 17:03:06 86° W 17:07:27 10° N
Cosmos 2263 Rocket 4.2 17:01:38 10° WSW 17:06:03 23° NW 17:10:30 10° N
PAYLOAD A 4.0 17:05:54 10° SSE 17:10:41 84° WSW 17:15:41 10° NNW
GEOS 3 Rocket 4.4 17:14:17 10° E 17:18:38 29° NE 17:22:59 10° NNW
Cosmos 1536 Rocket 3.9 17:15:30 10° SSE 17:19:43 43° E 17:23:58 10° NNE
SJ-7 4.4 17:17:41 10° SSE 17:21:53 72° ENE 17:26:08 10° N
USA 234 3.6 17:16:58 10° NE 17:23:26 64° NW 17:29:51 10° WSW
Tiangong 1 2.9 17:21:34 10° SSW 17:23:50 19° SSE 17:25:29 13° ESE
SPOT 3 Rocket 3.6 17:19:33 10° SSE 17:24:45 90° NE 17:29:57 10° NNW
Okean 1 3.7 17:22:59 10° SSE 17:26:50 44° E 17:30:43 10° NNE
YAOGAN 1 2.5 17:23:27 10° SSE 17:27:46 88° ENE 17:32:08 10° NNW
Meteor 1-18 Rocket 4.2 17:22:18 10° S 17:27:52 68° E 17:33:34 10° NNE
Cosmos 1844 Rocket 3.2 17:25:30 10° SW 17:31:01 60° WNW 17:36:36 10° NNE
Cosmos 1812 2.6 17:27:21 10° S 17:31:11 73° E 17:35:02 10° NNE
CZ-4 R/B 4.3 17:28:16 10° SSE 17:32:23 74° ENE 17:36:33 10° N
BREEZE M DEB (TANK) 3.8 17:22:48 10° SW 17:33:06 48° SSE 17:35:33 20° E
COSMOS 2487 3.4 17:33:36 10° N 17:36:41 26° ENE 17:38:37 17° ESE
EP 2 4.1 17:34:30 10° SW 17:37:06 90° WNW 17:38:30 25° NE
Cosmos 921 Rocket 4.2 17:33:57 10° SE 17:37:08 21° E 17:37:42 20° E
USA 32 4.3 17:32:35 10° S 17:37:47 71° W 17:43:00 10° N
NOSS 3-3 (A) 4.0 17:32:13 10° SSW 17:38:19 68° ESE 17:44:01 14° NE
NOSS 3-3 (C) 4.0 17:32:19 10° SSW 17:38:24 68° ESE 17:44:05 14° NE
FALCON 9 R/B 4.3 17:09:38 10° WSW 17:39:47 58° S 17:46:24 16° E
SL-8 Rocket 4.4 17:33:55 10° NNW 17:40:01 67° W 17:46:06 10° S
ISS -1.7 17:37:37 10° W 17:40:27 26° NNW 17:42:13 17° NNE
Cosmos 1346 Rocket 3.1 17:39:08 10° SSE 17:42:50 43° E 17:45:20 18° NNE
IDEFIX/ARIANE 42P 3.1 17:40:11 10° S 17:45:19 62° W 17:50:29 10° NNW
CORIOLIS 4.5 17:40:21 10° S 17:45:44 70° WSW 17:51:08 10° NNW
ASTRO F (AKARI) 4.3 17:43:39 10° N 17:46:48 77° WNW 17:49:55 10° SSW
Cosmos 494 Rocket 4.1 17:42:11 10° NNW 17:47:27 83° WSW 17:52:42 10° SSE
ATLAS 2AS CENTAUR R/B 3.2 17:39:22 10° NW 17:47:27 80° WSW 17:54:58 10° SSE
Cosmos 1844 4.2 17:42:18 10° SW 17:47:46 59° WNW 17:53:16 10° NNE
Cosmos 1455 Rocket 3.3 17:44:46 10° NNW 17:49:09 71° W 17:53:33 10° S
SKYMED 2 3.6 17:45:31 10° NNE 17:49:49 59° E 17:54:06 10° S
Cosmos 2297 4.1 17:44:46 10° S 17:50:00 41° ESE 17:53:05 22° NE
Cosmos 2366 rocket 4.2 17:44:57 10° N 17:51:19 76° W 17:57:34 10° S
Okean 1-7 Rocket 4.1 17:48:58 10° SSE 17:53:05 36° E 17:54:42 27° NE
CZ-3B DEB 2.6 17:51:39 10° WSW 17:55:27 63° NNW 18:02:20 18° NE
MSX 4.0 17:52:15 10° S 17:57:59 74° WSW 18:03:46 10° NNW
CZ-4 R/B 3.9 17:58:58 10° SSW 18:02:25 25° W 18:05:52 10° NW
Cosmos 1809 Rocket 4.3 17:56:36 10° N 18:02:47 76° E 18:08:52 10° SSE
Cosmos 2278 Rocket 2.4 17:58:36 10° SSW 18:04:13 72° WNW 18:09:21 13° NNE
Abrixas 4.1 18:01:46 10° NW 18:03:36 23° N 18:03:36 23° N
SL-24 DEB 4.5 18:00:00 10° N 18:04:44 73° W 18:09:24 10° SSW
Cosmos 1238 Rocket 4.4 18:04:54 10° SW 18:07:23 24° WNW 18:09:57 10° NNW
OTV 4 3.7 18:08:10 10° SW 18:08:33 10° SSW 18:08:55 10° SSW
CZ-2C R/B 4.2 18:05:05 10° SSW 18:09:34 34° W 18:14:12 10° NNW
BREEZE-M R/B 4.2 17:59:04 10° WSW 18:09:46 77° NNW 18:12:19 33° NE
Timation 2 Rocket 4.1 18:03:47 10° NNW 18:10:33 63° ENE 18:17:22 10° SE
Cosmos 1975 3.5 18:07:30 10° NNW 18:11:30 57° W 18:15:27 10° S
Meteor 1-19 Rocket 4.3 18:08:35 10° S 18:14:14 59° E 18:18:28 19° NNE
Cosmos 2239 Rocket 4.5 18:10:30 10° N 18:16:37 56° E 18:22:37 10° SSE
Genesis I 3.1 18:18:42 10° NNW 18:22:39 86° WSW 18:23:18 60° SSE
NOAA 12 3.9 18:19:57 10° SSE 18:25:14 74° ENE 18:30:29 10° N
Cosmos 1821 Rocket 3.8 18:20:08 10° N 18:26:12 63° E 18:32:13 10° SSE
Cosmos 1484 Rocket 4.2 18:25:07 10° SSW 18:28:38 38° W 18:32:08 10° NNW
TIMED 4.4 18:24:52 10° SSW 18:29:14 86° WNW 18:29:59 61° N
Cosmos 2082 Rocket 2.0 18:24:19 10° NNW 18:30:00 73° ENE 18:33:41 22° SSE
SL-8 R/B 4.0 18:25:22 10° WSW 18:30:04 56° NNW 18:30:50 50° NNE
Meteor 1-13 Rocket 4.3 18:25:55 10° SSW 18:31:34 81° W 18:37:11 11° N
Cosmos 1833 Rocket 2.6 18:26:00 10° NNW 18:31:38 64° ENE 18:33:05 47° ESE
METEOR-M 4.0 18:28:01 10° SSE 18:33:20 74° ENE 18:38:40 10° N
NOSS 2-1 (D) 3.9 18:30:41 10° SSW 18:33:30 47° S 18:33:30 47° S
NOSS 2-1 (C) 3.9 18:31:21 10° SSW 18:34:10 46° S 18:34:10 46° S
COSMO-SKYMED 1 3.8 18:34:05 12° N 18:37:47 40° WNW 18:41:50 10° SW
Meteor 1-23 Rocket 4.1 18:37:56 10° S 18:43:21 64° ESE 18:43:21 64° ESE
Meteor 1-28 Rocket 4.0 18:45:29 48° WNW 18:45:30 48° WNW 18:49:10 10° SSW
Timation 1 Rocket 4.4 18:48:00 10° SSW 18:53:57 75° WNW 18:55:27 52° N
GEOS 3 Rocket 4.2 18:53:31 24° S 18:56:26 53° WSW 19:01:27 10° NW
Meteor 2-4 Rocket 3.5 18:53:05 10° SSW 18:58:29 81° W 18:58:30 81° WNW
Tiangong 1 4.3 18:56:43 10° WSW 18:57:12 14° WSW 18:57:12 14° WSW
Cosmos 2056 Rocket 4.5 18:57:32 10° SSW 19:00:49 38° S 19:00:49 38° S
ATLAS 3B CENTAUR R/B 4.0 19:00:15 10° WSW 19:13:48 36° SSW 19:15:57 31° SSE
BREEZE M DEB (TANK) 3.9 19:17:16 10° NW 19:21:54 79° NNE 19:21:54 79° NNE
NOSS 3-4 (A) 3.9 19:16:08 10° NNW 19:21:59 64° NNW 19:21:59 64° NNW
NOSS 3-4 (C) 3.9 19:16:14 10° NNW 19:22:03 63° NNW 19:22:03 63° NNW
